STARLINK-35351 (65668 NORAD) Tracking and Keplerian Element Data

This shows tracking and keplerian element data for the satellite.

Feedback or suggestion? Click here.




ElementValue
Catalog65668
NameSTARLINK-35351
Epoch Orbit1507
Epoch Day354.1300843
Epoch Year2025
RAAN35.6885
Inclination97.6046
Eccentricity8.22E-05
Argument of Perigee97.8499
Mean Anonmoly262.2822
Mean Motion15.05651235
Decay Rate1.838E-05
L11 65668U 25211S 25354.13008430 .00001838 00000+0 13159-3 0 9991
L22 65668 97.6046 35.6885 0000822 97.8499 262.2822 15.05651235 15078



Live tracking and technical data element details for STARLINK-35351 (NORAD 65668). STARLINK-35351 can be tracked NOW for your location showing map with azimuth and elevation plus other details from your city location.







IsCatalogInMostPopularTable: catalog: 65668, numindb: 8
Update: records affected: 1



GetName: 65668 STARLINK-35351

Hit Count: updated at: Tue, 21 Apr 2026 20:29:02 GMT